Weather in Bagaryak

Russia / Chelyabinsk Oblast     56°12′16″N   61°30′16″E
temp.,
°C
wind,
m/s
gust,
m/s
humid.,
%
clouds,
%
prec.,
mm/h
press.,
hPa
HPBL,
m
5 march, fri
fri523:00−10ssw399136 0.0 998197
02:00−8ssw51285100 0.0 995367
05:00−6ssw61387100 0.4 992647
08:00−5wsw5148350 0.0 992872
11:00−3w8157725 0.0 996991
14:00−2wsw6127332 0.0 9981186
17:00−3wsw398163 0.0 999688
20:00−7w3588100 0.0 1000114
6 march, sat
sat623:00−9wnw41188100 0.0 1002403
02:00−12w4119036 0.0 1005358
05:00−13w4118919 0.0 1008290
08:00−14w411890 0.0 1008290
11:00−9w511810 0.0 1009823
14:00−7w6107547 0.1 10091563
17:00−7w5118074 0.2 10091425
20:00−11w398794 0.0 1010214
7 march, sun
sun723:00−15w239247 0.0 101235
02:00−17wnw22950 0.0 101220
05:00−19w119643 0.0 101220
08:00−19e119696 0.0 101120
11:00−13ene229398 0.0 1010203
14:00−11ne3493100 0.1 1007332
17:00−10nne3694100 0.7 1005366
20:00−13nnw2696100 0.3 1005141
8 march, mon
mon823:00−17wnw339768 0.3 100755
02:00−18wnw369553 0.0 1008125
05:00−20w359429 0.0 100981
08:00−21wsw33940 0.0 100952
11:00−15ssw379021 0.0 1008290
14:00−11sse5988100 0.0 1006446
17:00−8ssw51089100 0.4 1003633
20:00−9s41291100 0.0 1003342
9 march, tue
tue923:00−8wsw5158167 0.1 1005668
02:00−12sw369033 0.0 1007122
05:00−12sse388867 0.0 1005205
08:00−7se51295100 1.9 999802
11:00−4sw81294100 3.9 9951140
14:00−7sw71280100 0.4 9961533
17:00−6w91683100 0.9 10001535
20:00−10wnw5138567 0.0 1005733